Погода в Гуйве

Украина / Житомирская область     50°12′38″N   28°39′30″E
темп.,
°C
ветер,
м/с
пор.,
м/с
влажн.,
%
обл.,
%
осадки,
мм/ч
давл.,
гПа
погр.,
м
19 апреля, пн
пн1900:00+5в3494100 0.0 101887
03:00+3в2393100 0.0 101847
06:00+2в339391 0.0 101850
09:00+7в357667 0.0 1018403
12:00+11в345972 0.0 10171413
15:00+11в3455100 0.1 10161298
18:00+10всв2366100 0.0 101688
21:00+8св3676100 0.1 1016176
20 апреля, вт
вт2000:00+6св358525 0.1 1015103
03:00+4ссв359478 0.1 101497
06:00+5св3791100 0.0 1013224
09:00+7ссв5787100 0.1 1013624
12:00+9ссв567187 0.1 10121028
15:00+10ссв6760100 0.5 10101377
18:00+9с4766100 0.0 1010990
21:00+7ссз3774100 0.1 1010307
21 апреля, ср
ср2100:00+6ссз488359 0.1 1011328
03:00+3зсз3693100 0.1 1011115
06:00+3з3593100 0.0 1012100
09:00+7з3577100 0.0 1012322
12:00+9з357155 0.3 1012907
15:00+13зюз6753100 1.3 10111936
18:00+12зюз5868100 1.0 1012695
21:00+9зюз378096 1.8 1013131
22 апреля, чт
чт2200:00+6юз388757 0.0 1014145
03:00+6юз389056 0.0 1014146
06:00+5юз379349 0.0 1015137
09:00+10юз587366 0.0 1015395
12:00+14юз675715 0.3 10151450
15:00+15зюз785682 2.8 10151540
18:00+14з566480 0.6 10151082
21:00+9юз239296 1.1 101781
23 апреля, пт
пт2300:00+7ююз349498 0.0 101687
03:00+7ююв3893100 0.0 1014167
06:00+6юз239490 0.1 101443
09:00+7ссз6789100 0.2 1015526
12:00+3сз5996100 0.8 1018467
15:00+7зсз3677100 2.8 1017870
18:00+9зсз3562100 0.0 10171047
21:00+6зсз4107596 0.1 1018304